This is the latest recevied weather packets stored in our database for station/object WA4TPR. If no packets are shown the sender has not sent any weather packets the latest 10 day(s).
| Time | Temp. | Humidity | Pressure | Rain* | Wind** | Luminosity | Snow |
|---|---|---|---|---|---|---|---|
| 1778096041 | 34.44° C | 40% | 1019.7 hPa | 0 mm | - | 711 W/m² | - |
| 1778095737 | 33.33° C | 43% | 1019.6 hPa | 0 mm | - | 733 W/m² | - |
| 1778095434 | 33.89° C | 41% | 1019.6 hPa | 0 mm | - | 715 W/m² | - |
| 1778095131 | 33.89° C | 41% | 1019.5 hPa | 0 mm | - | 741 W/m² | - |
| 1778094827 | 33.33° C | 42% | 1019.5 hPa | 0 mm | - | 760 W/m² | - |
| 1778094524 | 33.89° C | 41% | 1019.7 hPa | 0 mm | - | 760 W/m² | - |
| 1778094220 | 34.44° C | 42% | 1020 hPa | 0 mm | - | 710 W/m² | - |
| 1778093917 | 33.89° C | 41% | 1019.9 hPa | 0 mm | - | 790 W/m² | - |
| 1778093615 | 34.44° C | 41% | 1020.1 hPa | 0 mm | - | 775 W/m² | - |
| 1778093312 | 34.44° C | 42% | 1019.9 hPa | 0 mm | - | 799 W/m² | - |
| 1778093009 | 33.89° C | 42% | 1020 hPa | 0 mm | - | 798 W/m² | - |
| 1778092706 | 33.89° C | 42% | 1020.2 hPa | 0 mm | - | 813 W/m² | - |
| 1778092401 | 33.89° C | 44% | 1020.3 hPa | 0 mm | - | 814 W/m² | - |
| 1778092099 | 33.89° C | 43% | 1020.2 hPa | 0 mm | - | 815 W/m² | - |
| 1778091796 | 33.89° C | 43% | 1020.3 hPa | 0 mm | - | 821 W/m² | - |
| 1778091494 | 32.78° C | 45% | 1020.5 hPa | 0 mm | - | 834 W/m² | - |
| 1778091191 | 33.89° C | 45% | 1020.3 hPa | 0 mm | - | 833 W/m² | - |
| 1778090888 | 32.78° C | 45% | 1020.7 hPa | 0 mm | - | 834 W/m² | - |
| 1778090584 | 32.78° C | 46% | 1020.9 hPa | 0 mm | - | 848 W/m² | - |
| 1778090280 | 32.78° C | 47% | 1020.5 hPa | 0 mm | - | 847 W/m² | - |
| 1778089977 | 33.89° C | 47% | 1020.6 hPa | 0 mm | - | 847 W/m² | - |
| 1778089675 | 32.78° C | 48% | 1020.6 hPa | 0 mm | - | 856 W/m² | - |
| 1778089372 | 32.78° C | 49% | 1020.7 hPa | 0 mm | - | 765 W/m² | - |
| 1778089069 | 33.33° C | 46% | 1020.6 hPa | 0 mm | - | 815 W/m² | - |
| 1778088766 | 32.78° C | 47% | 1020.6 hPa | 0 mm | - | 790 W/m² | - |
* Rain latest hour (hover to see other rain measurements)
** Current wind speed in m/s (hover to see current wind gust speed)